Location: Warwick
(41.7000°N, 71.4170°W)
Time: 20:59:39
(UTC-05:00)

Hubble Space Telescope - Pass Details

Date: 27 October 2017
Orbit: 537 x 541 km, 28.5° (Epoch: 22 November)

Event Time Altitude Azimuth Distance (km) Brightness Sun altitude
Rises 19:14:58 0° 241° (WSW) 2,674 5.5 -17.1°
Reaches altitude 10° 19:18:38 10° 208° (SSW) 1,781 3.8 -17.8°
Maximum altitude 19:20:04 12° 188° (S) 1,682 3.4 -18.1°
Drops below altitude 10° 19:21:29 10° 167° (SSE) 1,780 3.3 -18.3°
Enters shadow 19:22:04 - 160° (SSE) 1,871 3.3 -18.4°
